Location: Unspecified
(0.0000°N, 0.0000°E)
Time: 11:25:23
(UTC+00:00)

Vanguard 3 - Pass Details

Date: 20 November 2019
Orbit: 508 x 3263 km, 33.3° (Epoch: 07 December)

Event Time Altitude Azimuth Distance (km) Brightness Sun altitude
Rises 15:30:44 0° 300° (WNW) 7,184 12.4 31.5°
Reaches altitude 10° 15:39:20 10° 320° (NW) 6,172 11.9 29.5°
Maximum altitude 15:49:19 16° 351° (N) 5,386 11.3 27.2°
Drops below altitude 10° 15:58:06 10° 24° (NNE) 5,346 11.0 25.2°
Sets 16:04:31 0° 45° (NE) 5,816 11.0 23.7°
